Time,TemperatureF,DewpointF,PressureIn,WindDirection,WindDirectionDegrees,WindSpeedMPH,WindSpeedGustMPH,Humidity,HourlyPrecipIn,Conditions,Clouds,dailyrainin,SoftwareType,DateUTC
2013-02-05 00:00:00,62.6,52.7,30.01,West,270,0.0,0.0,70,0.00,CLR,,0.00,WeatherDisplay:10.37,2013-02-05 05:00:00,
2013-02-05 00:05:00,62.4,52.5,30.01,WNW,292,0.0,0.0,70,0.00,CLR,,0.00,WeatherDisplay:10.37,2013-02-05 05:05:00,
2013-02-05 00:10:00,62.4,52.9,30.00,West,270,0.0,0.0,71,0.00,CLR,,0.00,WeatherDisplay:10.37,2013-02-05 05:10:00,
2013-02-05 00:15:00,62.4,52.9,30.00,West,270,0.0,0.0,71,0.00,CLR,,0.00,WeatherDisplay:10.37,2013-02-05 05:15:00,
2013-02-05 00:20:00,62.4,52.9,30.00,West,270,0.0,0.0,71,0.00,CLR,,0.00,WeatherDisplay:10.37,2013-02-05 05:20:00,
2013-02-05 00:25:00,62.2,52.7,30.00,West,270,0.0,0.0,71,0.00,CLR,,0.00,WeatherDisplay:10.37,2013-02-05 05:25:00,
2013-02-05 00:30:00,62.2,53.1,30.01,West,270,0.0,0.0,72,0.00,CLR,,0.00,WeatherDisplay:10.37,2013-02-05 05:30:00,
2013-02-05 00:35:00,62.2,53.1,30.01,West,270,0.0,0.0,72,0.00,CLR,,0.00,WeatherDisplay:10.37,2013-02-05 05:35:00,
2013-02-05 00:40:00,61.9,52.8,30.01,WNW,292,0.0,0.0,72,0.00,CLR,,0.00,WeatherDisplay:10.37,2013-02-05 05:40:00,
2013-02-05 00:45:00,61.9,52.8,30.01,NW,315,0.0,0.0,72,0.00,CLR,,0.00,WeatherDisplay:10.37,2013-02-05 05:45:00,
2013-02-05 00:50:00,61.9,52.8,30.00,NW,315,0.0,0.0,72,0.00,CLR,,0.00,WeatherDisplay:10.37,2013-02-05 05:50:00,
2013-02-05 00:55:00,62.1,52.9,30.00,West,270,0.0,0.0,72,0.00,CLR,,0.00,WeatherDisplay:10.37,2013-02-05 05:55:00,
2013-02-05 01:00:00,62.1,52.9,30.00,WSW,248,0.0,0.0,72,0.00,CLR,,0.00,WeatherDisplay:10.37,2013-02-05 06:00:00,
2013-02-05 01:05:00,61.9,52.8,30.00,NW,315,0.0,0.0,72,0.00,CLR,,0.00,WeatherDisplay:10.37,2013-02-05 06:05:00,
2013-02-05 01:10:00,61.7,52.6,30.00,WNW,292,0.0,0.0,72,0.00,CLR,,0.00,WeatherDisplay:10.37,2013-02-05 06:10:00,
2013-02-05 01:15:00,61.5,52.8,30.00,NW,315,0.0,0.0,73,0.00,CLR,,0.00,WeatherDisplay:10.37,2013-02-05 06:15:00,
2013-02-05 01:20:00,61.5,52.8,30.00,WNW,292,0.0,0.0,73,0.00,CLR,,0.00,WeatherDisplay:10.37,2013-02-05 06:20:00,
2013-02-05 01:25:00,61.7,53.0,30.00,WNW,292,0.0,0.0,73,0.00,CLR,,0.00,WeatherDisplay:10.37,2013-02-05 06:25:00,
2013-02-05 01:30:00,61.3,52.6,30.00,NW,315,0.0,0.0,73,0.00,CLR,,0.00,WeatherDisplay:10.37,2013-02-05 06:30:00,
2013-02-05 01:35:00,61.2,52.8,30.00,NW,315,0.0,0.0,74,0.00,CLR,,0.00,WeatherDisplay:10.37,2013-02-05 06:35:00,
2013-02-05 01:41:00,61.3,53.0,30.00,West,270,0.0,0.0,74,0.00,CLR,,0.00,WeatherDisplay:10.37,2013-02-05 06:41:00,
2013-02-05 01:46:00,61.3,53.0,30.00,West,270,0.0,0.0,74,0.00,CLR,,0.00,WeatherDisplay:10.37,2013-02-05 06:46:00,
2013-02-05 01:51:00,61.3,53.0,29.99,West,270,0.0,0.0,74,0.00,CLR,,0.00,WeatherDisplay:10.37,2013-02-05 06:51:00,
2013-02-05 01:56:00,61.2,52.8,29.99,WNW,292,0.0,0.0,74,0.00,CLR,,0.00,WeatherDisplay:10.37,2013-02-05 06:56:00,
2013-02-05 02:01:00,61.0,52.6,29.99,West,270,0.0,0.0,74,0.00,CLR,,0.00,WeatherDisplay:10.37,2013-02-05 07:01:00,
2013-02-05 02:06:00,61.0,52.6,29.99,West,270,0.0,0.0,74,0.00,CLR,,0.00,WeatherDisplay:10.37,2013-02-05 07:06:00,
2013-02-05 02:11:00,60.8,52.5,29.99,West,270,0.0,0.0,74,0.00,CLR,,0.00,WeatherDisplay:10.37,2013-02-05 07:11:00,
2013-02-05 02:16:00,60.8,52.5,29.99,West,270,0.0,0.0,74,0.00,CLR,,0.00,WeatherDisplay:10.37,2013-02-05 07:16:00,
2013-02-05 02:21:00,61.0,52.6,29.99,WNW,292,0.0,0.0,74,0.00,CLR,,0.00,WeatherDisplay:10.37,2013-02-05 07:21:00,
2013-02-05 02:26:00,60.8,52.5,29.99,West,270,0.0,0.0,74,0.00,CLR,,0.00,WeatherDisplay:10.37,2013-02-05 07:26:00,
2013-02-05 02:31:00,60.6,52.3,29.99,West,270,0.0,0.0,74,0.00,CLR,,0.00,WeatherDisplay:10.37,2013-02-05 07:31:00,
2013-02-05 02:36:00,60.6,52.3,29.99,West,270,0.0,0.0,74,0.00,CLR,,0.00,WeatherDisplay:10.37,2013-02-05 07:36:00,
2013-02-05 02:41:00,60.6,52.3,29.99,WNW,292,0.0,0.0,74,0.00,CLR,,0.00,WeatherDisplay:10.37,2013-02-05 07:41:00,
2013-02-05 02:46:00,60.6,52.3,29.99,West,270,0.0,0.0,74,0.00,CLR,,0.00,WeatherDisplay:10.37,2013-02-05 07:46:00,
2013-02-05 02:51:00,60.6,52.3,29.98,West,270,0.0,0.0,74,0.00,CLR,,0.00,WeatherDisplay:10.37,2013-02-05 07:51:00,
2013-02-05 02:56:00,60.3,51.9,29.98,WNW,292,0.0,0.0,74,0.00,CLR,,0.00,WeatherDisplay:10.37,2013-02-05 07:56:00,
2013-02-05 03:01:00,60.3,51.9,29.98,NW,315,0.0,0.0,74,0.00,CLR,,0.00,WeatherDisplay:10.37,2013-02-05 08:01:00,
2013-02-05 03:06:00,60.1,51.8,29.98,West,270,0.0,0.0,74,0.00,CLR,,0.00,WeatherDisplay:10.37,2013-02-05 08:06:00,
2013-02-05 03:11:00,60.1,51.8,29.98,WSW,248,0.0,0.0,74,0.00,CLR,,0.00,WeatherDisplay:10.37,2013-02-05 08:11:00,
2013-02-05 03:16:00,60.1,51.8,29.98,West,270,0.0,0.0,74,0.00,CLR,,0.00,WeatherDisplay:10.37,2013-02-05 08:16:00,
2013-02-05 03:21:00,60.1,51.8,29.98,WSW,248,0.0,0.0,74,0.00,CLR,,0.00,WeatherDisplay:10.37,2013-02-05 08:21:00,
2013-02-05 03:26:00,59.9,51.6,29.98,WNW,292,0.0,0.0,74,0.00,CLR,,0.00,WeatherDisplay:10.37,2013-02-05 08:26:00,
2013-02-05 03:31:00,59.9,51.6,29.98,NW,315,0.0,0.0,74,0.00,CLR,,0.00,WeatherDisplay:10.37,2013-02-05 08:31:00,
2013-02-05 03:36:00,59.7,51.8,29.98,NW,315,0.0,0.0,75,0.00,CLR,,0.00,WeatherDisplay:10.37,2013-02-05 08:36:00,
2013-02-05 03:41:00,59.5,51.6,29.98,NW,315,0.0,0.0,75,0.00,CLR,,0.00,WeatherDisplay:10.37,2013-02-05 08:41:00,
2013-02-05 03:46:00,59.5,51.6,29.98,NW,315,0.0,0.0,75,0.00,CLR,,0.00,WeatherDisplay:10.37,2013-02-05 08:46:00,
2013-02-05 03:51:00,59.4,51.4,29.98,WSW,248,0.0,0.0,75,0.00,CLR,,0.00,WeatherDisplay:10.37,2013-02-05 08:51:00,
2013-02-05 03:56:00,59.5,51.6,29.98,NW,315,0.0,0.0,75,0.00,CLR,,0.00,WeatherDisplay:10.37,2013-02-05 08:56:00,
2013-02-05 04:01:00,59.5,51.6,29.98,West,270,0.0,0.0,75,0.00,CLR,,0.00,WeatherDisplay:10.37,2013-02-05 09:01:00,
2013-02-05 04:06:00,59.4,51.4,29.98,WNW,292,0.0,0.0,75,0.00,CLR,,0.00,WeatherDisplay:10.37,2013-02-05 09:06:00,
2013-02-05 04:11:00,59.4,51.4,29.98,West,270,0.0,0.0,75,0.00,CLR,,0.00,WeatherDisplay:10.37,2013-02-05 09:11:00,
2013-02-05 04:16:00,59.2,51.3,29.98,WNW,292,0.0,0.0,75,0.00,CLR,,0.00,WeatherDisplay:10.37,2013-02-05 09:16:00,
2013-02-05 04:21:00,59.2,51.3,29.98,WSW,248,0.0,0.0,75,0.00,CLR,,0.00,WeatherDisplay:10.37,2013-02-05 09:21:00,
2013-02-05 04:26:00,59.2,51.3,29.98,WNW,292,0.0,0.0,75,0.00,CLR,,0.00,WeatherDisplay:10.37,2013-02-05 09:26:00,
2013-02-05 04:31:00,59.2,51.3,29.97,WNW,292,0.0,0.0,75,0.00,CLR,,0.00,WeatherDisplay:10.37,2013-02-05 09:31:00,
2013-02-05 04:36:00,59.0,51.1,29.97,West,270,0.0,0.0,75,0.00,CLR,,0.00,WeatherDisplay:10.37,2013-02-05 09:36:00,
2013-02-05 04:41:00,59.0,51.1,29.97,NW,315,0.0,0.0,75,0.00,CLR,,0.00,WeatherDisplay:10.37,2013-02-05 09:41:00,
2013-02-05 04:46:00,59.2,51.3,29.97,NW,315,0.0,0.0,75,0.00,CLR,,0.00,WeatherDisplay:10.37,2013-02-05 09:46:00,
2013-02-05 04:51:00,59.2,51.6,29.98,NW,315,0.0,0.0,76,0.00,CLR,,0.00,WeatherDisplay:10.37,2013-02-05 09:51:00,
2013-02-05 04:56:00,59.0,51.1,29.98,NW,315,0.0,0.0,75,0.00,CLR,,0.00,WeatherDisplay:10.37,2013-02-05 09:56:00,
2013-02-05 05:01:00,58.8,50.9,29.98,NW,315,0.0,0.0,75,0.00,CLR,,0.00,WeatherDisplay:10.37,2013-02-05 10:01:00,
2013-02-05 05:06:00,58.8,50.9,29.98,WSW,248,0.0,0.0,75,0.00,CLR,,0.00,WeatherDisplay:10.37,2013-02-05 10:06:00,
2013-02-05 05:11:00,58.6,50.7,29.97,NW,315,0.0,0.0,75,0.00,CLR,,0.00,WeatherDisplay:10.37,2013-02-05 10:11:00,
2013-02-05 05:16:00,58.6,50.7,29.97,NW,315,0.0,0.0,75,0.00,CLR,,0.00,WeatherDisplay:10.37,2013-02-05 10:16:00,
2013-02-05 05:21:00,58.5,50.6,29.97,NW,315,0.0,0.0,75,0.00,CLR,,0.00,WeatherDisplay:10.37,2013-02-05 10:21:00,
2013-02-05 05:26:00,58.5,50.9,29.97,WNW,292,0.0,0.0,76,0.00,CLR,,0.00,WeatherDisplay:10.37,2013-02-05 10:26:00,
2013-02-05 05:31:00,58.6,51.1,29.97,WSW,248,0.0,0.0,76,0.00,CLR,,0.00,WeatherDisplay:10.37,2013-02-05 10:31:00,
2013-02-05 05:36:00,58.6,51.1,29.97,West,270,0.0,0.0,76,0.00,CLR,,0.00,WeatherDisplay:10.37,2013-02-05 10:36:00,
2013-02-05 05:41:00,58.8,50.9,29.97,West,270,0.0,0.0,75,0.00,CLR,,0.00,WeatherDisplay:10.37,2013-02-05 10:41:00,
2013-02-05 05:46:00,58.8,50.9,29.97,West,270,0.0,0.0,75,0.00,CLR,,0.00,WeatherDisplay:10.37,2013-02-05 10:46:00,
2013-02-05 05:51:00,58.6,50.7,29.98,West,270,0.0,0.0,75,0.00,CLR,,0.00,WeatherDisplay:10.37,2013-02-05 10:51:00,
2013-02-05 05:56:00,58.6,50.7,29.98,NW,315,0.0,0.0,75,0.00,CLR,,0.00,WeatherDisplay:10.37,2013-02-05 10:56:00,
2013-02-05 06:01:00,58.6,50.7,29.98,NW,315,0.0,0.0,75,0.00,CLR,,0.00,WeatherDisplay:10.37,2013-02-05 11:01:00,
2013-02-05 06:06:00,58.5,50.6,29.98,NW,315,0.0,0.0,75,0.00,CLR,,0.00,WeatherDisplay:10.37,2013-02-05 11:06:00,
2013-02-05 06:11:00,58.3,50.7,29.98,NW,315,0.0,0.0,76,0.00,CLR,,0.00,WeatherDisplay:10.37,2013-02-05 11:11:00,
2013-02-05 06:16:00,58.3,50.7,29.98,NW,315,0.0,0.0,76,0.00,CLR,,0.00,WeatherDisplay:10.37,2013-02-05 11:16:00,
2013-02-05 06:21:00,58.5,50.9,29.98,West,270,0.0,0.0,76,0.00,CLR,,0.00,WeatherDisplay:10.37,2013-02-05 11:21:00,
2013-02-05 06:26:00,58.5,50.9,29.98,NW,315,0.0,0.0,76,0.00,CLR,,0.00,WeatherDisplay:10.37,2013-02-05 11:26:00,
2013-02-05 06:31:00,58.5,50.9,29.98,NW,315,0.0,0.0,76,0.00,CLR,,0.00,WeatherDisplay:10.37,2013-02-05 11:31:00,
2013-02-05 06:36:00,58.5,50.9,29.98,NW,315,0.0,0.0,76,0.00,CLR,,0.00,WeatherDisplay:10.37,2013-02-05 11:36:00,
2013-02-05 06:41:00,58.5,50.9,29.98,West,270,0.0,0.0,76,0.00,CLR,,0.00,WeatherDisplay:10.37,2013-02-05 11:41:00,
2013-02-05 06:46:00,58.5,50.9,29.99,WNW,292,0.0,0.0,76,0.00,CLR,,0.00,WeatherDisplay:10.37,2013-02-05 11:46:00,
2013-02-05 06:51:00,58.5,50.9,29.99,West,270,0.0,0.0,76,0.00,CLR,,0.00,WeatherDisplay:10.37,2013-02-05 11:51:00,
2013-02-05 06:56:00,58.5,50.9,29.99,West,270,0.0,0.0,76,0.00,CLR,,0.00,WeatherDisplay:10.37,2013-02-05 11:56:00,
2013-02-05 07:01:00,58.5,50.9,29.99,NW,315,0.0,0.0,76,0.00,CLR,,0.00,WeatherDisplay:10.37,2013-02-05 12:01:00,
2013-02-05 07:06:00,58.5,50.9,29.99,WNW,292,0.0,0.0,76,0.00,CLR,,0.00,WeatherDisplay:10.37,2013-02-05 12:06:00,
2013-02-05 07:11:00,58.5,50.9,29.99,West,270,0.0,0.0,76,0.00,CLR,,0.00,WeatherDisplay:10.37,2013-02-05 12:11:00,
2013-02-05 07:16:00,58.5,50.9,29.99,NW,315,0.0,0.0,76,0.00,CLR,,0.00,WeatherDisplay:10.37,2013-02-05 12:16:00,
2013-02-05 07:21:00,58.6,51.1,29.99,NNW,338,0.0,0.0,76,0.00,CLR,,0.00,WeatherDisplay:10.37,2013-02-05 12:21:00,
2013-02-05 07:26:00,58.6,51.1,29.99,NNW,338,0.0,0.0,76,0.00,CLR,,0.00,WeatherDisplay:10.37,2013-02-05 12:26:00,
2013-02-05 07:31:00,59.2,51.6,29.99,NW,315,0.0,0.0,76,0.00,CLR,,0.00,WeatherDisplay:10.37,2013-02-05 12:31:00,
2013-02-05 07:36:00,59.5,52.0,29.99,NNW,338,0.0,0.0,76,0.00,CLR,,0.00,WeatherDisplay:10.37,2013-02-05 12:36:00,
2013-02-05 07:41:00,59.5,52.0,29.99,NW,315,0.0,0.0,76,0.00,CLR,,0.00,WeatherDisplay:10.37,2013-02-05 12:41:00,
2013-02-05 07:46:00,60.1,52.5,30.00,NNW,338,0.0,0.0,76,0.00,CLR,,0.00,WeatherDisplay:10.37,2013-02-05 12:46:00,
2013-02-05 07:51:00,60.3,52.7,30.00,North,0,0.0,0.0,76,0.00,CLR,,0.00,WeatherDisplay:10.37,2013-02-05 12:51:00,
2013-02-05 07:56:00,60.8,53.2,30.00,NNW,338,0.0,0.0,76,0.00,CLR,,0.00,WeatherDisplay:10.37,2013-02-05 12:56:00,
2013-02-05 08:01:00,61.0,53.4,30.00,NNE,22,0.0,0.0,76,0.00,CLR,,0.00,WeatherDisplay:10.37,2013-02-05 13:01:00,
2013-02-05 08:06:00,61.7,53.7,30.00,NNE,22,0.0,0.0,75,0.00,CLR,,0.00,WeatherDisplay:10.37,2013-02-05 13:06:00,
2013-02-05 08:11:00,61.9,53.9,30.00,NNE,22,0.0,0.0,75,0.00,CLR,,0.00,WeatherDisplay:10.37,2013-02-05 13:11:00,
2013-02-05 08:16:00,62.4,54.4,30.00,NE,45,0.0,0.0,75,0.00,CLR,,0.00,WeatherDisplay:10.37,2013-02-05 13:16:00,
2013-02-05 08:21:00,62.8,54.4,30.00,NE,45,0.0,0.0,74,0.00,CLR,,0.00,WeatherDisplay:10.37,2013-02-05 13:21:00,
2013-02-05 08:26:00,63.7,54.9,30.00,NNE,22,0.0,0.0,73,0.00,CLR,,0.00,WeatherDisplay:10.37,2013-02-05 13:26:00,
2013-02-05 08:31:00,64.0,54.8,30.00,NE,45,0.0,0.0,72,0.00,CLR,,0.00,WeatherDisplay:10.37,2013-02-05 13:31:00,
2013-02-05 08:36:00,64.6,54.6,30.00,NE,45,0.0,0.0,70,0.00,CLR,,0.00,WeatherDisplay:10.37,2013-02-05 13:36:00,
2013-02-05 08:41:00,64.9,54.9,30.00,NNE,22,0.0,0.0,70,0.00,CLR,,0.00,WeatherDisplay:10.37,2013-02-05 13:41:00,
2013-02-05 08:46:00,65.7,55.2,30.00,SE,135,0.0,0.0,69,0.00,CLR,,0.00,WeatherDisplay:10.37,2013-02-05 13:46:00,
2013-02-05 08:51:00,65.8,55.4,30.00,ESE,112,0.0,0.0,69,0.00,CLR,,0.00,WeatherDisplay:10.37,2013-02-05 13:51:00,
2013-02-05 08:56:00,66.4,55.5,30.00,SE,135,0.0,0.0,68,0.00,CLR,,0.00,WeatherDisplay:10.37,2013-02-05 13:56:00,
2013-02-05 09:01:00,66.9,56.0,30.00,SE,135,1.1,0.0,68,0.00,CLR,,0.00,WeatherDisplay:10.37,2013-02-05 14:01:00,
2013-02-05 09:06:00,67.3,55.9,30.00,ESE,112,0.0,0.1,67,0.00,CLR,,0.00,WeatherDisplay:10.37,2013-02-05 14:06:00,
2013-02-05 09:11:00,67.8,56.5,30.00,ENE,68,0.0,0.0,67,0.00,CLR,,0.00,WeatherDisplay:10.37,2013-02-05 14:11:00,
2013-02-05 09:16:00,68.2,56.8,30.00,ESE,112,0.0,0.1,67,0.00,CLR,,0.00,WeatherDisplay:10.37,2013-02-05 14:16:00,
2013-02-05 09:22:00,68.7,56.9,30.00,East,90,1.1,1.1,66,0.00,CLR,,0.00,WeatherDisplay:10.37,2013-02-05 14:22:00,
2013-02-05 09:27:00,68.9,57.1,30.01,ESE,112,1.1,1.1,66,0.00,CLR,,0.00,WeatherDisplay:10.37,2013-02-05 14:27:00,
2013-02-05 09:32:00,69.3,57.4,30.01,SE,135,0.0,0.3,66,0.00,CLR,,0.00,WeatherDisplay:10.37,2013-02-05 14:32:00,
2013-02-05 09:37:00,69.8,58.3,30.01,SE,135,2.3,2.3,67,0.00,CLR,,0.00,WeatherDisplay:10.37,2013-02-05 14:37:00,
2013-02-05 09:42:00,70.0,58.1,30.01,SE,135,5.8,5.8,66,0.00,CLR,,0.00,WeatherDisplay:10.37,2013-02-05 14:42:00,
2013-02-05 09:47:00,70.2,57.4,30.01,SE,135,4.6,4.6,64,0.00,CLR,,0.00,WeatherDisplay:10.37,2013-02-05 14:47:00,
2013-02-05 09:52:00,70.5,57.3,30.01,South,180,2.3,2.5,63,0.00,CLR,,0.00,WeatherDisplay:10.37,2013-02-05 14:52:00,
2013-02-05 09:57:00,71.1,57.8,30.01,SSE,158,5.8,5.8,63,0.00,CLR,,0.00,WeatherDisplay:10.37,2013-02-05 14:57:00,
2013-02-05 10:02:00,71.4,57.7,30.01,SSE,158,5.8,5.8,62,0.00,CLR,,0.00,WeatherDisplay:10.37,2013-02-05 15:02:00,
2013-02-05 10:07:00,71.8,58.1,30.01,SSE,158,8.1,8.1,62,0.00,CLR,,0.00,WeatherDisplay:10.37,2013-02-05 15:07:00,
2013-02-05 10:12:00,71.6,57.4,30.01,South,180,6.9,6.9,61,0.00,CLR,,0.00,WeatherDisplay:10.37,2013-02-05 15:12:00,
2013-02-05 10:17:00,72.1,57.5,30.01,SE,135,4.6,4.6,60,0.00,CLR,,0.00,WeatherDisplay:10.37,2013-02-05 15:17:00,
2013-02-05 10:22:00,72.3,57.7,30.01,SSE,158,4.6,4.6,60,0.00,CLR,,0.00,WeatherDisplay:10.37,2013-02-05 15:22:00,
2013-02-05 10:27:00,72.9,57.7,30.02,ESE,112,5.8,5.8,59,0.00,CLR,,0.00,WeatherDisplay:10.37,2013-02-05 15:27:00,
2013-02-05 10:32:00,73.0,57.4,30.02,ENE,68,3.5,3.5,58,0.00,CLR,,0.00,WeatherDisplay:10.37,2013-02-05 15:32:00,
2013-02-05 10:37:00,73.4,57.7,30.02,SE,135,4.6,4.6,58,0.00,CLR,,0.00,WeatherDisplay:10.37,2013-02-05 15:37:00,
2013-02-05 10:42:00,73.6,57.9,30.02,SE,135,3.5,3.7,58,0.00,CLR,,0.00,WeatherDisplay:10.37,2013-02-05 15:42:00,
2013-02-05 10:47:00,73.8,58.1,30.03,South,180,5.8,5.8,58,0.00,CLR,,0.00,WeatherDisplay:10.37,2013-02-05 15:47:00,
2013-02-05 10:52:00,73.9,58.2,30.03,SE,135,6.9,6.9,58,0.00,CLR,,0.00,WeatherDisplay:10.37,2013-02-05 15:52:00,
2013-02-05 10:57:00,74.3,58.6,30.03,ESE,112,4.6,4.6,58,0.00,CLR,,0.00,WeatherDisplay:10.37,2013-02-05 15:57:00,
2013-02-05 11:02:00,74.5,58.2,30.03,ENE,68,8.1,8.1,57,0.00,CLR,,0.00,WeatherDisplay:10.37,2013-02-05 16:02:00,
2013-02-05 11:07:00,74.8,59.1,30.01,ESE,112,3.5,3.7,58,0.00,CLR,,0.00,WeatherDisplay:10.37,2013-02-05 16:07:00,
2013-02-05 11:12:00,75.2,58.9,30.01,SSE,158,4.6,4.6,57,0.00,CLR,,0.00,WeatherDisplay:10.37,2013-02-05 16:12:00,
2013-02-05 11:17:00,75.2,58.4,30.01,SE,135,4.6,4.6,56,0.00,CLR,,0.00,WeatherDisplay:10.37,2013-02-05 16:17:00,
2013-02-05 11:22:00,75.4,59.1,30.01,SE,135,3.5,4.1,57,0.00,CLR,,0.00,WeatherDisplay:10.37,2013-02-05 16:22:00,
2013-02-05 11:27:00,75.6,59.7,30.01,ESE,112,3.5,4.3,58,0.00,CLR,,0.00,WeatherDisplay:10.37,2013-02-05 16:27:00,
2013-02-05 11:32:00,75.9,60.1,30.01,SW,225,6.9,6.9,58,0.00,CLR,,0.00,WeatherDisplay:10.37,2013-02-05 16:32:00,
2013-02-05 11:37:00,76.1,60.2,30.01,ESE,112,3.5,4.4,58,0.00,CLR,,0.00,WeatherDisplay:10.37,2013-02-05 16:37:00,
2013-02-05 11:42:00,76.5,60.1,30.01,WSW,248,5.8,5.8,57,0.00,CLR,,0.00,WeatherDisplay:10.37,2013-02-05 16:42:00,
2013-02-05 11:47:00,76.5,60.1,30.01,SE,135,2.3,4.3,57,0.00,CLR,,0.00,WeatherDisplay:10.37,2013-02-05 16:47:00,
2013-02-05 11:52:00,76.5,59.6,30.01,NNE,22,6.9,6.9,56,0.00,CLR,,0.00,WeatherDisplay:10.37,2013-02-05 16:52:00,
2013-02-05 11:57:00,76.8,60.4,30.01,SSE,158,6.9,6.9,57,0.00,CLR,,0.00,WeatherDisplay:10.37,2013-02-05 16:57:00,
2013-02-05 12:02:00,77.0,60.6,30.01,SSE,158,3.5,4.0,57,0.00,CLR,,0.00,WeatherDisplay:10.37,2013-02-05 17:02:00,
2013-02-05 12:07:00,77.0,60.6,30.01,SSE,158,3.5,4.0,57,0.00,CLR,,0.00,WeatherDisplay:10.37,2013-02-05 17:07:00,
2013-02-05 12:12:00,77.5,60.6,30.01,ENE,68,6.9,6.9,56,0.00,CLR,,0.00,WeatherDisplay:10.37,2013-02-05 17:12:00,
2013-02-05 12:17:00,77.5,60.6,30.01,SE,135,5.8,5.8,56,0.00,CLR,,0.00,WeatherDisplay:10.37,2013-02-05 17:17:00,
2013-02-05 12:22:00,77.7,60.8,30.01,ESE,112,6.9,6.9,56,0.00,CLR,,0.00,WeatherDisplay:10.37,2013-02-05 17:22:00,
2013-02-05 12:27:00,77.9,60.9,30.00,SSE,158,4.6,4.6,56,0.00,CLR,,0.00,WeatherDisplay:10.37,2013-02-05 17:27:00,
2013-02-05 12:32:00,78.3,61.3,30.00,ESE,112,6.9,6.9,56,0.00,CLR,,0.00,WeatherDisplay:10.37,2013-02-05 17:32:00,
2013-02-05 12:37:00,77.9,60.9,30.00,ENE,68,4.6,4.6,56,0.00,CLR,,0.00,WeatherDisplay:10.37,2013-02-05 17:37:00,
2013-02-05 12:42:00,78.3,61.8,30.00,SSE,158,5.8,5.8,57,0.00,CLR,,0.00,WeatherDisplay:10.37,2013-02-05 17:42:00,
2013-02-05 12:47:00,78.3,61.3,30.00,SE,135,5.8,5.8,56,0.00,CLR,,0.00,WeatherDisplay:10.37,2013-02-05 17:47:00,
2013-02-05 12:52:00,78.1,61.1,30.00,ESE,112,6.9,6.9,56,0.00,CLR,,0.00,WeatherDisplay:10.37,2013-02-05 17:52:00,
2013-02-05 12:57:00,78.4,61.4,30.00,ENE,68,6.9,6.9,56,0.00,CLR,,0.00,WeatherDisplay:10.37,2013-02-05 17:57:00,
2013-02-05 13:02:00,78.8,61.8,30.00,SSE,158,5.8,5.8,56,0.00,CLR,,0.00,WeatherDisplay:10.37,2013-02-05 18:02:00,
2013-02-05 13:07:00,78.6,61.6,29.99,ESE,112,6.9,6.9,56,0.00,CLR,,0.00,WeatherDisplay:10.37,2013-02-05 18:07:00,
2013-02-05 13:12:00,78.4,60.9,29.99,South,180,4.6,5.1,55,0.00,CLR,,0.00,WeatherDisplay:10.37,2013-02-05 18:12:00,
2013-02-05 13:17:00,78.1,61.1,29.99,SE,135,5.8,5.8,56,0.00,CLR,,0.00,WeatherDisplay:10.37,2013-02-05 18:17:00,
2013-02-05 13:22:00,78.6,61.6,29.99,SE,135,4.6,4.6,56,0.00,CLR,,0.00,WeatherDisplay:10.37,2013-02-05 18:22:00,
2013-02-05 13:27:00,79.0,61.9,29.99,SE,135,6.9,6.9,56,0.00,CLR,,0.00,WeatherDisplay:10.37,2013-02-05 18:27:00,
2013-02-05 13:32:00,79.0,61.4,29.99,SE,135,9.2,9.2,55,0.00,CLR,,0.00,WeatherDisplay:10.37,2013-02-05 18:32:00,
2013-02-05 13:38:00,77.9,60.9,29.99,East,90,4.6,4.9,56,0.00,CLR,,0.00,WeatherDisplay:10.37,2013-02-05 18:38:00,
2013-02-05 13:43:00,78.6,61.6,29.99,South,180,5.8,5.8,56,0.00,CLR,,0.00,WeatherDisplay:10.37,2013-02-05 18:43:00,
2013-02-05 13:48:00,79.0,61.9,29.98,ESE,112,5.8,5.8,56,0.00,CLR,,0.00,WeatherDisplay:10.37,2013-02-05 18:48:00,
2013-02-05 13:53:00,78.8,61.8,29.98,SE,135,6.9,6.9,56,0.00,CLR,,0.00,WeatherDisplay:10.37,2013-02-05 18:53:00,
2013-02-05 13:58:00,78.4,61.4,29.98,SE,135,4.6,5.1,56,0.00,CLR,,0.00,WeatherDisplay:10.37,2013-02-05 18:58:00,
2013-02-05 14:03:00,78.1,61.6,29.98,SE,135,4.6,4.8,57,0.00,CLR,,0.00,WeatherDisplay:10.37,2013-02-05 19:03:00,
2013-02-05 14:08:00,78.6,62.1,29.98,SE,135,2.3,4.4,57,0.00,CLR,,0.00,WeatherDisplay:10.37,2013-02-05 19:08:00,
2013-02-05 14:13:00,78.8,61.8,29.98,ESE,112,6.9,6.9,56,0.00,CLR,,0.00,WeatherDisplay:10.37,2013-02-05 19:13:00,
2013-02-05 14:18:00,79.2,62.1,29.98,ESE,112,3.5,4.3,56,0.00,CLR,,0.00,WeatherDisplay:10.37,2013-02-05 19:18:00,
2013-02-05 14:23:00,79.3,62.3,29.98,South,180,5.8,5.8,56,0.00,CLR,,0.00,WeatherDisplay:10.37,2013-02-05 19:23:00,
2013-02-05 14:28:00,78.8,61.8,29.98,ESE,112,5.8,5.8,56,0.00,CLR,,0.00,WeatherDisplay:10.37,2013-02-05 19:28:00,
2013-02-05 14:33:00,78.3,61.8,29.98,South,180,8.1,8.1,57,0.00,CLR,,0.00,WeatherDisplay:10.37,2013-02-05 19:33:00,
2013-02-05 14:38:00,78.3,61.8,29.98,SE,135,6.9,6.9,57,0.00,CLR,,0.00,WeatherDisplay:10.37,2013-02-05 19:38:00,
2013-02-05 14:43:00,78.4,62.4,29.98,WNW,292,6.9,6.9,58,0.00,CLR,,0.00,WeatherDisplay:10.37,2013-02-05 19:43:00,
2013-02-05 14:48:00,78.6,62.6,29.98,SE,135,6.9,6.9,58,0.00,CLR,,0.00,WeatherDisplay:10.37,2013-02-05 19:48:00,
2013-02-05 14:53:00,78.6,62.6,29.98,SE,135,5.8,5.8,58,0.00,CLR,,0.00,WeatherDisplay:10.37,2013-02-05 19:53:00,
2013-02-05 14:58:00,78.4,62.4,29.98,South,180,9.2,9.2,58,0.00,CLR,,0.00,WeatherDisplay:10.37,2013-02-05 19:58:00,
2013-02-05 15:03:00,78.6,62.6,29.98,East,90,5.8,5.8,58,0.00,CLR,,0.00,WeatherDisplay:10.37,2013-02-05 20:03:00,
2013-02-05 15:08:00,78.8,62.3,29.97,ESE,112,5.8,5.8,57,0.00,CLR,,0.00,WeatherDisplay:10.37,2013-02-05 20:08:00,
2013-02-05 15:13:00,79.0,62.9,29.97,ESE,112,5.8,5.8,58,0.00,CLR,,0.00,WeatherDisplay:10.37,2013-02-05 20:13:00,
2013-02-05 15:18:00,79.0,62.4,29.97,SE,135,4.6,4.6,57,0.00,CLR,,0.00,WeatherDisplay:10.37,2013-02-05 20:18:00,
2013-02-05 15:23:00,78.4,62.4,29.97,ENE,68,4.6,4.6,58,0.00,CLR,,0.00,WeatherDisplay:10.37,2013-02-05 20:23:00,
2013-02-05 15:28:00,78.3,62.3,29.97,SE,135,6.9,6.9,58,0.00,CLR,,0.00,WeatherDisplay:10.37,2013-02-05 20:28:00,
2013-02-05 15:33:00,77.9,62.4,29.97,SE,135,5.8,5.8,59,0.00,CLR,,0.00,WeatherDisplay:10.37,2013-02-05 20:33:00,
2013-02-05 15:38:00,77.9,62.4,29.97,SE,135,4.6,4.6,59,0.00,CLR,,0.00,WeatherDisplay:10.37,2013-02-05 20:38:00,
2013-02-05 15:43:00,77.9,62.4,29.97,South,180,6.9,6.9,59,0.00,CLR,,0.00,WeatherDisplay:10.37,2013-02-05 20:43:00,
2013-02-05 15:48:00,77.4,61.9,29.97,SE,135,8.1,8.1,59,0.00,CLR,,0.00,WeatherDisplay:10.37,2013-02-05 20:48:00,
2013-02-05 15:53:00,77.5,62.1,29.97,South,180,6.9,6.9,59,0.00,CLR,,0.00,WeatherDisplay:10.37,2013-02-05 20:53:00,
2013-02-05 15:58:00,77.2,61.7,29.97,SE,135,8.1,8.1,59,0.00,CLR,,0.00,WeatherDisplay:10.37,2013-02-05 20:58:00,
2013-02-05 16:03:00,77.2,62.2,29.97,SE,135,5.8,5.8,60,0.00,CLR,,0.00,WeatherDisplay:10.37,2013-02-05 21:03:00,
2013-02-05 16:08:00,76.6,61.7,29.97,SE,135,6.9,6.9,60,0.00,CLR,,0.00,WeatherDisplay:10.37,2013-02-05 21:08:00,
2013-02-05 16:13:00,76.6,61.7,29.97,ESE,112,4.6,4.6,60,0.00,CLR,,0.00,WeatherDisplay:10.37,2013-02-05 21:13:00,
2013-02-05 16:18:00,76.1,61.2,29.97,SE,135,5.8,5.8,60,0.00,CLR,,0.00,WeatherDisplay:10.37,2013-02-05 21:18:00,
2013-02-05 16:24:00,76.1,61.2,29.97,ESE,112,2.3,3.8,60,0.00,CLR,,0.00,WeatherDisplay:10.37,2013-02-05 21:24:00,
2013-02-05 16:29:00,75.7,60.9,29.97,ESE,112,6.9,6.9,60,0.00,CLR,,0.00,WeatherDisplay:10.37,2013-02-05 21:29:00,
2013-02-05 16:34:00,75.9,61.5,29.97,ESE,112,6.9,6.9,61,0.00,CLR,,0.00,WeatherDisplay:10.37,2013-02-05 21:34:00,
2013-02-05 16:39:00,75.9,61.5,29.97,SSW,202,4.6,4.6,61,0.00,CLR,,0.00,WeatherDisplay:10.37,2013-02-05 21:39:00,
2013-02-05 16:44:00,75.7,61.3,29.97,SE,135,4.6,4.6,61,0.00,CLR,,0.00,WeatherDisplay:10.37,2013-02-05 21:44:00,
2013-02-05 16:49:00,75.7,61.3,29.97,SE,135,5.8,5.8,61,0.00,CLR,,0.00,WeatherDisplay:10.37,2013-02-05 21:49:00,
2013-02-05 16:54:00,75.4,61.0,29.97,SE,135,4.6,4.6,61,0.00,CLR,,0.00,WeatherDisplay:10.37,2013-02-05 21:54:00,
2013-02-05 16:59:00,75.2,61.3,29.97,SE,135,4.6,4.6,62,0.00,CLR,,0.00,WeatherDisplay:10.37,2013-02-05 21:59:00,
2013-02-05 17:04:00,75.0,61.1,29.97,South,180,4.6,4.6,62,0.00,CLR,,0.00,WeatherDisplay:10.37,2013-02-05 22:04:00,
2013-02-05 17:09:00,75.0,61.1,29.97,SE,135,5.8,5.8,62,0.00,CLR,,0.00,WeatherDisplay:10.37,2013-02-05 22:09:00,
2013-02-05 17:14:00,75.0,61.1,29.97,East,90,4.6,4.6,62,0.00,CLR,,0.00,WeatherDisplay:10.37,2013-02-05 22:14:00,
2013-02-05 17:19:00,74.8,61.4,29.97,SSE,158,4.6,4.6,63,0.00,CLR,,0.00,WeatherDisplay:10.37,2013-02-05 22:19:00,
2013-02-05 17:24:00,74.8,61.4,29.97,SSE,158,4.6,4.6,63,0.00,CLR,,0.00,WeatherDisplay:10.37,2013-02-05 22:24:00,
2013-02-05 17:29:00,74.7,61.2,29.96,SE,135,3.5,3.6,63,0.00,CLR,,0.00,WeatherDisplay:10.37,2013-02-05 22:29:00,
2013-02-05 17:34:00,74.5,61.1,29.96,SSE,158,5.8,5.8,63,0.00,CLR,,0.00,WeatherDisplay:10.37,2013-02-05 22:34:00,
2013-02-05 17:39:00,74.7,61.7,29.96,SE,135,5.8,5.8,64,0.00,CLR,,0.00,WeatherDisplay:10.37,2013-02-05 22:39:00,
2013-02-05 17:44:00,74.3,61.3,29.96,SE,135,2.3,3.9,64,0.00,CLR,,0.00,WeatherDisplay:10.37,2013-02-05 22:44:00,
2013-02-05 17:49:00,61.7,52.6,30.00,SE,135,3.9,0.0,72,0.00,CLR,,0.00,WeatherDisplay:10.37,2013-02-05 22:49:00,
2013-02-05 17:54:00,73.9,61.4,29.96,South,180,5.1,5.1,65,0.00,CLR,,0.00,WeatherDisplay:10.37,2013-02-05 22:54:00,
2013-02-05 17:59:00,73.9,61.4,29.96,ESE,112,6.9,6.9,65,0.00,CLR,,0.00,WeatherDisplay:10.37,2013-02-05 22:59:00,
2013-02-05 18:04:00,73.6,61.1,29.96,SE,135,3.5,3.9,65,0.00,CLR,,0.00,WeatherDisplay:10.37,2013-02-05 23:04:00,
2013-02-05 18:09:00,73.6,61.1,29.97,SE,135,3.5,3.5,65,0.00,CLR,,0.00,WeatherDisplay:10.37,2013-02-05 23:09:00,
2013-02-05 18:14:00,73.2,61.2,29.97,SE,135,4.0,4.0,66,0.00,CLR,,0.00,WeatherDisplay:10.37,2013-02-05 23:14:00,
2013-02-05 18:19:00,73.0,61.0,29.97,ESE,112,5.8,5.8,66,0.00,CLR,,0.00,WeatherDisplay:10.37,2013-02-05 23:19:00,
2013-02-05 18:24:00,72.9,60.8,29.97,SSE,158,5.8,5.8,66,0.00,CLR,,0.00,WeatherDisplay:10.37,2013-02-05 23:24:00,
2013-02-05 18:29:00,72.9,60.8,29.97,SSE,158,3.5,3.5,66,0.00,CLR,,0.00,WeatherDisplay:10.37,2013-02-05 23:29:00,
2013-02-05 18:34:00,72.9,61.3,29.97,SE,135,4.5,4.5,67,0.00,CLR,,0.00,WeatherDisplay:10.37,2013-02-05 23:34:00,
2013-02-05 18:40:00,72.9,61.3,29.97,ESE,112,3.5,3.5,67,0.00,CLR,,0.00,WeatherDisplay:10.37,2013-02-05 23:40:00,
2013-02-05 18:45:00,72.5,60.9,29.97,SE,135,3.8,3.8,67,0.00,CLR,,0.00,WeatherDisplay:10.37,2013-02-05 23:45:00,
2013-02-05 18:50:00,72.5,61.3,29.97,East,90,4.6,4.6,68,0.00,CLR,,0.00,WeatherDisplay:10.37,2013-02-05 23:50:00,
2013-02-05 18:55:00,72.5,61.3,29.97,SSE,158,5.2,5.2,68,0.00,CLR,,0.00,WeatherDisplay:10.37,2013-02-05 23:55:00,
2013-02-05 19:00:00,72.3,61.2,29.97,SE,135,4.6,4.6,68,0.00,CLR,,0.00,WeatherDisplay:10.37,2013-02-06 00:00:00,
2013-02-05 19:05:00,72.5,61.3,29.97,SSE,158,2.3,2.3,68,0.00,CLR,,0.00,WeatherDisplay:10.37,2013-02-06 00:05:00,
2013-02-05 19:10:00,72.3,61.6,29.98,SE,135,4.6,4.6,69,0.00,CLR,,0.00,WeatherDisplay:10.37,2013-02-06 00:10:00,
2013-02-05 19:15:00,72.1,61.4,29.98,SE,135,3.5,3.5,69,0.00,CLR,,0.00,WeatherDisplay:10.37,2013-02-06 00:15:00,
2013-02-05 19:20:00,72.1,61.4,29.98,SSE,158,4.6,4.6,69,0.00,CLR,,0.00,WeatherDisplay:10.37,2013-02-06 00:20:00,
2013-02-05 19:25:00,72.1,61.4,29.98,ESE,112,4.4,4.4,69,0.00,CLR,,0.00,WeatherDisplay:10.37,2013-02-06 00:25:00,
2013-02-05 19:30:00,72.0,61.2,29.98,SE,135,4.6,4.6,69,0.00,CLR,,0.00,WeatherDisplay:10.37,2013-02-06 00:30:00,
2013-02-05 19:35:00,72.0,61.2,29.98,SE,135,3.5,3.5,69,0.00,CLR,,0.00,WeatherDisplay:10.37,2013-02-06 00:35:00,
2013-02-05 19:40:00,72.1,61.4,29.98,SE,135,3.5,3.5,69,0.00,CLR,,0.00,WeatherDisplay:10.37,2013-02-06 00:40:00,
2013-02-05 19:45:00,72.1,61.4,29.98,SE,135,5.4,5.4,69,0.00,CLR,,0.00,WeatherDisplay:10.37,2013-02-06 00:45:00,
2013-02-05 19:50:00,72.1,61.4,29.99,SE,135,2.3,2.6,69,0.00,CLR,,0.00,WeatherDisplay:10.37,2013-02-06 00:50:00,
2013-02-05 19:55:00,72.1,61.4,29.99,SSE,158,3.5,3.5,69,0.00,CLR,,0.00,WeatherDisplay:10.37,2013-02-06 00:55:00,
2013-02-05 20:00:00,72.0,61.2,29.99,SSE,158,2.3,2.4,69,0.00,CLR,,0.00,WeatherDisplay:10.37,2013-02-06 01:00:00,
2013-02-05 20:05:00,72.0,61.2,29.99,SSE,158,3.0,3.0,69,0.00,CLR,,0.00,WeatherDisplay:10.37,2013-02-06 01:05:00,
2013-02-05 20:10:00,72.0,61.6,29.99,South,180,4.6,4.6,70,0.00,CLR,,0.00,WeatherDisplay:10.37,2013-02-06 01:10:00,
2013-02-05 20:15:00,72.0,61.6,29.99,SE,135,3.5,3.5,70,0.00,CLR,,0.00,WeatherDisplay:10.37,2013-02-06 01:15:00,
2013-02-05 20:20:00,71.8,61.5,29.99,East,90,4.6,4.6,70,0.00,CLR,,0.00,WeatherDisplay:10.37,2013-02-06 01:20:00,
2013-02-05 20:25:00,71.8,61.5,29.99,SE,135,4.6,4.6,70,0.00,CLR,,0.00,WeatherDisplay:10.37,2013-02-06 01:25:00,
2013-02-05 20:30:00,71.8,61.5,29.99,SSE,158,4.6,4.6,70,0.00,CLR,,0.00,WeatherDisplay:10.37,2013-02-06 01:30:00,
2013-02-05 20:35:00,72.0,61.6,29.99,NNW,338,2.4,3.5,70,0.00,CLR,,0.00,WeatherDisplay:10.37,2013-02-06 01:35:00,
2013-02-05 20:40:00,71.8,61.5,29.99,SE,135,2.3,2.5,70,0.00,CLR,,0.00,WeatherDisplay:10.37,2013-02-06 01:40:00,
2013-02-05 20:45:00,71.6,61.3,29.99,South,180,0.0,2.0,70,0.00,CLR,,0.00,WeatherDisplay:10.37,2013-02-06 01:45:00,
2013-02-05 20:50:00,71.8,61.5,29.99,SE,135,3.5,3.5,70,0.00,CLR,,0.00,WeatherDisplay:10.37,2013-02-06 01:50:00,
2013-02-05 20:55:00,71.6,61.3,29.99,SE,135,1.6,1.6,70,0.00,CLR,,0.00,WeatherDisplay:10.37,2013-02-06 01:55:00,
2013-02-05 21:00:00,71.4,61.1,29.99,SE,135,1.3,1.4,70,0.00,CLR,,0.00,WeatherDisplay:10.37,2013-02-06 02:00:00,
2013-02-05 21:05:00,71.4,61.1,29.99,SE,135,1.5,1.5,70,0.00,CLR,,0.00,WeatherDisplay:10.37,2013-02-06 02:05:00,
2013-02-05 21:10:00,71.4,61.1,29.99,SE,135,5.8,5.8,70,0.00,CLR,,0.00,WeatherDisplay:10.37,2013-02-06 02:10:00,
2013-02-05 21:15:00,71.6,61.3,29.99,SE,135,2.3,2.3,70,0.00,CLR,,0.00,WeatherDisplay:10.37,2013-02-06 02:15:00,
2013-02-05 21:20:00,71.6,61.3,29.99,South,180,2.3,2.3,70,0.00,CLR,,0.00,WeatherDisplay:10.37,2013-02-06 02:20:00,
2013-02-05 21:25:00,71.6,61.7,29.99,SE,135,2.9,2.9,71,0.00,CLR,,0.00,WeatherDisplay:10.37,2013-02-06 02:25:00,
2013-02-05 21:30:00,71.6,61.7,29.99,ESE,112,3.5,3.5,71,0.00,CLR,,0.00,WeatherDisplay:10.37,2013-02-06 02:30:00,
2013-02-05 21:36:00,71.8,61.9,29.99,SSE,158,2.3,2.6,71,0.00,CLR,,0.00,WeatherDisplay:10.37,2013-02-06 02:36:00,
2013-02-05 21:41:00,71.6,61.7,29.99,ESE,112,4.6,4.6,71,0.00,CLR,,0.00,WeatherDisplay:10.37,2013-02-06 02:41:00,
2013-02-05 21:46:00,71.6,61.7,29.99,SSE,158,4.6,4.6,71,0.00,CLR,,0.00,WeatherDisplay:10.37,2013-02-06 02:46:00,
2013-02-05 21:51:00,71.8,61.9,29.99,SE,135,3.5,3.5,71,0.00,CLR,,0.00,WeatherDisplay:10.37,2013-02-06 02:51:00,
2013-02-05 21:56:00,71.6,61.7,29.99,South,180,2.0,2.0,71,0.00,CLR,,0.00,WeatherDisplay:10.37,2013-02-06 02:56:00,
2013-02-05 22:01:00,71.4,61.5,29.99,SW,225,2.3,2.3,71,0.00,CLR,,0.00,WeatherDisplay:10.37,2013-02-06 03:01:00,
2013-02-05 22:06:00,71.4,61.5,30.00,SSE,158,2.3,2.3,71,0.00,CLR,,0.00,WeatherDisplay:10.37,2013-02-06 03:06:00,
2013-02-05 22:11:00,71.1,61.2,30.00,South,180,0.0,0.1,71,0.00,CLR,,0.00,WeatherDisplay:10.37,2013-02-06 03:11:00,
2013-02-05 22:16:00,70.9,61.0,30.00,SSW,202,0.0,0.1,71,0.00,CLR,,0.00,WeatherDisplay:10.37,2013-02-06 03:16:00,
2013-02-05 22:21:00,70.7,61.2,30.00,South,180,0.0,0.0,72,0.00,CLR,,0.00,WeatherDisplay:10.37,2013-02-06 03:21:00,
2013-02-05 22:26:00,70.7,61.2,30.00,South,180,0.0,0.0,72,0.00,CLR,,0.00,WeatherDisplay:10.37,2013-02-06 03:26:00,
2013-02-05 22:31:00,70.3,60.9,30.00,SSE,158,0.0,0.0,72,0.00,CLR,,0.00,WeatherDisplay:10.37,2013-02-06 03:31:00,
2013-02-05 22:36:00,70.3,60.9,30.00,SSE,158,0.0,0.0,72,0.00,CLR,,0.00,WeatherDisplay:10.37,2013-02-06 03:36:00,
2013-02-05 22:41:00,70.2,60.7,30.00,SSE,158,0.0,0.0,72,0.00,CLR,,0.00,WeatherDisplay:10.37,2013-02-06 03:41:00,
2013-02-05 22:46:00,69.8,60.4,30.00,SSE,158,0.0,0.0,72,0.00,CLR,,0.00,WeatherDisplay:10.37,2013-02-06 03:46:00,
2013-02-05 22:52:00,70.0,60.5,30.00,SSE,158,0.0,0.0,72,0.00,CLR,,0.00,WeatherDisplay:10.37,2013-02-06 03:52:00,
2013-02-05 22:57:00,70.0,60.5,30.00,SSE,158,0.0,0.0,72,0.00,CLR,,0.00,WeatherDisplay:10.37,2013-02-06 03:57:00,
2013-02-05 23:02:00,69.8,60.4,30.00,SSW,202,0.0,0.0,72,0.00,CLR,,0.00,WeatherDisplay:10.37,2013-02-06 04:02:00,
2013-02-05 23:07:00,69.6,60.2,30.00,SW,225,0.0,0.0,72,0.00,CLR,,0.00,WeatherDisplay:10.37,2013-02-06 04:07:00,
2013-02-05 23:12:00,69.4,60.0,30.00,SW,225,0.0,0.0,72,0.00,CLR,,0.00,WeatherDisplay:10.37,2013-02-06 04:12:00,
2013-02-05 23:17:00,69.4,60.0,30.00,South,180,0.0,0.0,72,0.00,CLR,,0.00,WeatherDisplay:10.37,2013-02-06 04:17:00,
2013-02-05 23:22:00,69.3,59.8,30.00,SE,135,0.0,0.0,72,0.00,CLR,,0.00,WeatherDisplay:10.37,2013-02-06 04:22:00,
2013-02-05 23:27:00,69.1,60.1,30.00,South,180,0.0,0.1,73,0.00,CLR,,0.00,WeatherDisplay:10.37,2013-02-06 04:27:00,
2013-02-05 23:32:00,69.1,60.1,30.00,South,180,0.0,0.1,73,0.00,CLR,,0.00,WeatherDisplay:10.37,2013-02-06 04:32:00,
2013-02-05 23:37:00,68.9,60.3,30.00,West,270,0.0,0.0,74,0.00,CLR,,0.00,WeatherDisplay:10.37,2013-02-06 04:37:00,
2013-02-05 23:42:00,68.9,60.3,30.00,West,270,0.0,0.0,74,0.00,CLR,,0.00,WeatherDisplay:10.37,2013-02-06 04:42:00,
2013-02-05 23:47:00,68.7,60.1,30.00,West,270,0.0,0.0,74,0.00,CLR,,0.00,WeatherDisplay:10.37,2013-02-06 04:47:00,
2013-02-05 23:52:00,68.9,60.3,30.00,NW,315,0.0,0.0,74,0.00,CLR,,0.00,WeatherDisplay:10.37,2013-02-06 04:52:00,
2013-02-05 23:57:00,68.7,60.1,30.00,NW,315,0.0,0.0,74,0.00,CLR,,0.00,WeatherDisplay:10.37,2013-02-06 04:57:00,